Location: Bidwell Hollow
(37.7387°N, 90.1707°W)
Time: 01:24:07
(UTC+00:00)

Tiros 1 despin weight - Pass Details

Date: 15 May 2026
Orbit: 554 x 591 km, 48.2° (Epoch: 6 June)

Event Time Altitude Azimuth Distance (km) Brightness Sun altitude
Rises 17:05:46 0° 302° (WNW) 2,730 ? 68.2°
Reaches altitude 10° 17:08:01 10° 299° (WNW) 1,832 ? 68.4°
Maximum altitude 17:12:10 68° 217° (SW) 598 ? 68.8°
Drops below altitude 10° 17:16:19 10° 135° (SE) 1,829 ? 69.3°
Sets 17:18:34 0° 132° (SE) 2,725 ? 69.5°
